2023-001D (55012 NORAD) Tracking and Keplerian Element Data

This shows tracking and keplerian element data for the satellite.

Feedback or suggestion? Click here.




ElementValue
Catalog55012
Name2023-001D
Epoch Orbit169
Epoch Day13.78894312
Epoch Year2023
RAAN75.7358
Inclination97.5082
Eccentricity0.0011698
Argument of Perigee193.136
Mean Anonmoly166.9568
Mean Motion15.12055234
Decay Rate9.579E-05
L11 55012U 23001D 23013.78894312 .00009579 00000+0 55958-3 0 9994
L22 55012 97.5082 75.7358 0011698 193.1360 166.9568 15.12055234 1694



Live tracking and technical data element details for 2023-001D (NORAD 55012). 2023-001D can be tracked NOW for your location showing map with azimuth and elevation plus other details from your city location.







IsCatalogInMostPopularTable: catalog: 55012, numindb: 3
Update: records affected: 1



GetName: 55012 2023-001D

Hit Count: updated at: Tue, 07 Feb 2023 14:09:52 GMT